Weather History for K1R7 - March, 2014

Change the Weather History Date:

Tuesday, March 4, 2014

  Actual Average (KMCB) Record (KMCB)
Temperature  
Mean Temperature 30 °F -  
Max Temperature 33 °F 67 °F 82 °F (1955)
Min Temperature 28 °F 45 °F 23 °F (1960)
Degree Days  
Heating Degree Days 34    
Moisture  
Dew Point 29 °F    
Average Humidity 94    
Maximum Humidity 100    
Minimum Humidity 86    
Precipitation  
Precipitation 0.08 in - - ()
Sea Level Pressure  
Sea Level Pressure 30.18 in    
Wind  
Wind Speed 0 mph (North)    
Max Wind Speed 0 mph    
Max Gust Speed -    
Visibility 6 miles    
Events Rain    
Averages and records for this station are not official NWS values.
T = Trace of Precipitation, MM = Missing Value Source: NWS Daily Summary

Daily Weather History Graph

Daily Weather History Graph

Search for Another Location

Airport or City:

Trip Planner

Search our weather history database for the weather conditions in past years. The results will help you decide how hot, cold, wet, or windy it might be!

Date:

Astronomy

Mar. 04, 2014 Rise Set
Actual Time 6:25 AM CST 6:01 PM CST
Civil Twilight 6:00 AM CST 6:26 PM CST
Nautical Twilight 5:32 AM CST 6:54 PM CST
Astronomical Twilight 5:04 AM CST 7:22 PM CST
Moon 8:26 AM CST (3/4) 9:52 PM CST (3/4)
Length of Visible Light 12h 25m
Length of Day
11h 36m
Waxing Crescent, 15% of the Moon is Illuminated
Mar 4
Waxing Crescent
Mar 8
First Quarter
Mar 16
Full
Mar 23
Last Quarter
Mar 30
New

Hourly Weather History & Observations

Time (CST) Temp. Dew Point Humidity Pressure Visibility Wind Dir Wind Speed Gust Speed Precip Events Conditions
12:15 AM 28.4 °F 24.8 °F 86% 30.23 in 10.0 mi Calm Calm - N/A   Overcast
12:35 AM 28.4 °F 24.8 °F 86% 30.24 in 10.0 mi Calm Calm - N/A   Overcast
12:55 AM 28.4 °F 24.8 °F 86% 30.24 in 10.0 mi Calm Calm - N/A   Overcast
1:15 AM 28.4 °F 24.8 °F 86% 30.24 in 10.0 mi Calm Calm - N/A   Overcast
1:35 AM 28.4 °F 24.8 °F 86% 30.23 in 10.0 mi Calm Calm - N/A   Overcast
1:55 AM 28.4 °F 26.6 °F 93% 30.22 in 10.0 mi Calm Calm - N/A   Overcast
2:15 AM 28.4 °F 26.6 °F 93% 30.21 in 10.0 mi Calm Calm - N/A   Overcast
2:35 AM 28.4 °F 26.6 °F 93% 30.21 in 10.0 mi Calm Calm - N/A   Overcast
2:55 AM 28.4 °F 26.6 °F 93% 30.20 in 10.0 mi Calm Calm - N/A   Overcast
3:15 AM 28.4 °F 26.6 °F 93% 30.20 in 10.0 mi Calm Calm - N/A   Overcast
3:35 AM 28.4 °F 26.6 °F 93% 30.20 in 10.0 mi Calm Calm - N/A   Overcast
3:55 AM 28.4 °F 26.6 °F 93% 30.18 in 10.0 mi Calm Calm - N/A   Overcast
4:15 AM 28.4 °F 26.6 °F 93% 30.18 in 10.0 mi Calm Calm - N/A   Overcast
4:35 AM 28.4 °F 26.6 °F 93% 30.16 in 10.0 mi Calm Calm - N/A   Overcast
4:55 AM 28.4 °F 26.6 °F 93% 30.17 in 10.0 mi Calm Calm - N/A   Overcast
5:15 AM 28.4 °F 26.6 °F 93% 30.16 in 10.0 mi Calm Calm - N/A   Overcast
5:35 AM 28.4 °F 26.6 °F 93% 30.18 in 10.0 mi Calm Calm - N/A   Overcast
5:55 AM 28.4 °F 26.6 °F 93% 30.18 in 10.0 mi Calm Calm - N/A   Overcast
6:15 AM 28.4 °F 26.6 °F 93% 30.19 in 10.0 mi Calm Calm - N/A   Overcast
6:35 AM 28.4 °F 26.6 °F 93% 30.18 in 10.0 mi Calm Calm - N/A   Overcast
6:55 AM 28.4 °F 26.6 °F 93% 30.18 in 10.0 mi Calm Calm - N/A   Overcast
7:15 AM 28.4 °F 26.6 °F 93% 30.20 in 10.0 mi Calm Calm - N/A   Overcast
7:35 AM 30.2 °F 26.6 °F 86% 30.22 in 10.0 mi Calm Calm - N/A   Overcast
7:55 AM 30.2 °F 26.6 °F 86% 30.21 in 10.0 mi Calm Calm - N/A   Overcast
8:15 AM 30.2 °F 26.6 °F 86% 30.23 in 9.0 mi Calm Calm - N/A   Overcast
8:35 AM 30.2 °F 26.6 °F 86% 30.23 in 10.0 mi Calm Calm - N/A Rain Light Freezing Rain
8:55 AM 30.2 °F 28.4 °F 93% 30.24 in 5.0 mi Calm Calm - N/A Rain Light Freezing Rain
9:15 AM 30.2 °F 28.4 °F 93% 30.23 in 9.0 mi Calm Calm - N/A   Scattered Clouds
9:35 AM 30.2 °F 28.4 °F 93% 30.23 in 8.0 mi Calm Calm - N/A Rain Light Freezing Rain
9:55 AM 30.2 °F 28.4 °F 93% 30.23 in 9.0 mi Calm Calm - N/A   Overcast
10:15 AM 30.2 °F 28.4 °F 93% 30.22 in 9.0 mi Calm Calm - N/A   Overcast
10:35 AM 30.2 °F 28.4 °F 93% 30.22 in 8.0 mi Calm Calm - N/A   Overcast
10:55 AM 30.2 °F 28.4 °F 93% 30.24 in 5.0 mi Calm Calm - N/A Rain Light Freezing Rain
11:15 AM 32.0 °F 28.4 °F 87% 30.24 in 5.0 mi Calm Calm - N/A Rain Light Rain
11:35 AM 32.0 °F 28.4 °F 87% 30.22 in 7.0 mi Calm Calm - N/A Rain Light Rain
11:55 AM 32.0 °F 30.2 °F 93% 30.21 in 3.0 mi Calm Calm - N/A Rain Light Rain
12:15 PM 32.0 °F 28.4 °F 87% 30.21 in 3.0 mi Calm Calm - N/A Rain Light Rain
12:35 PM 32.0 °F 30.2 °F 93% 30.19 in 2.5 mi Calm Calm - 0.02 in Rain Light Rain
12:55 PM 32.0 °F 30.2 °F 93% 30.17 in 3.0 mi Calm Calm - 0.03 in Rain Light Rain
1:15 PM 32.0 °F 30.2 °F 93% 30.17 in 3.0 mi Calm Calm - 0.01 in Rain Light Rain
1:35 PM 32.0 °F 32.0 °F 100% 30.16 in 3.0 mi Calm Calm - 0.02 in Rain Light Rain
1:55 PM 32.0 °F 32.0 °F 100% 30.14 in 3.0 mi Calm Calm - 0.03 in Rain Light Rain
2:15 PM 32.0 °F 32.0 °F 100% 30.14 in 2.5 mi Calm Calm - N/A Rain Light Rain
2:35 PM 32.0 °F 32.0 °F 100% 30.14 in 3.0 mi Calm Calm - 0.01 in Rain Light Rain
2:55 PM 32.0 °F 32.0 °F 100% 30.14 in 2.5 mi Calm Calm - 0.02 in Rain Light Rain
3:15 PM 32.0 °F 32.0 °F 100% 30.14 in 3.0 mi Calm Calm - N/A Rain Light Rain
3:35 PM 32.0 °F 32.0 °F 100% 30.13 in 5.0 mi Calm Calm - N/A   Mostly Cloudy
3:55 PM 32.0 °F 32.0 °F 100% 30.14 in 7.0 mi Calm Calm - N/A   Overcast
4:15 PM 32.0 °F 32.0 °F 100% 30.15 in 5.0 mi Calm Calm - N/A   Overcast
4:35 PM 32.0 °F 32.0 °F 100% 30.14 in 5.0 mi Calm Calm - N/A   Overcast
4:55 PM 32.0 °F 32.0 °F 100% 30.12 in 4.0 mi Calm Calm - N/A   Overcast
5:15 PM 32.0 °F 32.0 °F 100% 30.13 in 3.0 mi Calm Calm - N/A   Overcast
5:35 PM 32.0 °F 32.0 °F 100% 30.13 in 3.0 mi Calm Calm - N/A   Overcast
5:55 PM 32.0 °F 32.0 °F 100% 30.13 in 4.0 mi Calm Calm - N/A   Overcast
6:15 PM 32.0 °F 32.0 °F 100% 30.12 in 3.0 mi Calm Calm - N/A   Mostly Cloudy
6:35 PM 32.0 °F 32.0 °F 100% 30.13 in 4.0 mi Calm Calm - N/A   Mostly Cloudy
6:55 PM 32.0 °F 32.0 °F 100% 30.12 in 3.0 mi Calm Calm - N/A   Overcast
7:15 PM 32.0 °F 32.0 °F 100% 30.13 in 3.0 mi Calm Calm - N/A   Overcast
7:35 PM 33.8 °F 32.0 °F 93% 30.16 in 3.0 mi Calm Calm - N/A   Overcast
7:55 PM 33.8 °F 32.0 °F 93% 30.15 in 3.0 mi Calm Calm - N/A   Overcast
8:15 PM 32.0 °F 32.0 °F 100% 30.14 in 2.5 mi Calm Calm - N/A   Mostly Cloudy
8:35 PM 32.0 °F 32.0 °F 100% 30.14 in 2.5 mi Calm Calm - N/A   Mostly Cloudy
8:55 PM 32.0 °F 32.0 °F 100% 30.14 in 2.0 mi Calm Calm - N/A   Overcast
9:15 PM 32.0 °F 32.0 °F 100% 30.14 in 2.5 mi Calm Calm - N/A   Mostly Cloudy
9:35 PM 32.0 °F 32.0 °F 100% 30.15 in 2.5 mi Calm Calm - N/A   Overcast
9:55 PM 32.0 °F 32.0 °F 100% 30.14 in 2.0 mi North - - N/A   Overcast
10:15 PM 32.0 °F 32.0 °F 100% 30.14 in 2.5 mi North - - N/A   Overcast
10:35 PM 33.8 °F 32.0 °F 93% 30.12 in 1.8 mi North - - N/A   Overcast
10:55 PM 33.8 °F 32.0 °F 93% 30.12 in 1.5 mi North - - N/A   Overcast
11:15 PM 33.8 °F 32.0 °F 93% 30.11 in 1.8 mi North - - N/A   Overcast
11:35 PM 33.8 °F 32.0 °F 93% 30.12 in 2.0 mi North - - N/A   Mostly Cloudy
11:55 PM 33.8 °F 32.0 °F 93% 30.11 in 2.0 mi North - - N/A   Mostly Cloudy